ELECTRON R/B (46270 NORAD) Tracking and Keplerian Element Data

This shows tracking and keplerian element data for the satellite.

Feedback or suggestion? Click here.




ElementValue
Catalog46270
NameELECTRON R/B
Epoch Orbit287
Epoch Day262.2138467
Epoch Year2020
RAAN223.2476
Inclination45.0837
Eccentricity0.0090521
Argument of Perigee7.0085
Mean Anonmoly353.3543
Mean Motion16.19519553
Decay Rate0.0392623
L11 46270U 20060C 20262.21384670 .03926230 10372-4 80159-3 0 9998
L22 46270 45.0837 223.2476 0090521 7.0085 353.3543 16.19519553 2879



Live tracking and technical data element details for ELECTRON R/B (NORAD 46270). ELECTRON R/B can be tracked NOW for your location showing map with azimuth and elevation plus other details from your city location.







IsCatalogInMostPopularTable: catalog: 46270, numindb: 123
Update: records affected: 1



GetName: 46270 ELECTRON R/B

Hit Count: updated at: Sun, 28 May 2023 19:54:05 GMT